Wind_Speed
40 38 33 33 31 37 42 45 45 45 42 44 44 47 50 57 66 80 92 87 83 83 83 78 77 71 66 62 60 54 58 57 56 61 66 67 63 50 44 34 26 19 16 17
32 29 29 27 32 34 33 34 35 40 39 22 21 29 41 46 53 61 67 71 74 74 73 74 67 54 51 50 50 49 51 52 56 63 66 62 57 44 35 25 18 13 14 17
31 29 31 27 26 27 30 31 24 24 21 21 21 24 30 42 51 56 60 62 65 64 54 44 42 41 41 45 44 45 47 50 53 59 60 55 48 39 30 20 12 11 12 18
43 38 35 31 28 29 29 31 25 19 18 20 23 26 29 34 38 41 45 45 43 37 37 37 33 32 36 37 39 45 48 50 51 58 57 47 44 33 25 16 12 12 18 22
49 44 38 35 32 30 27 25 22 18 19 23 23 20 27 31 35 36 36 38 40 37 38 27 27 31 35 38 43 47 49 47 51 56 48 39 38 31 24 15 16 17 21 24
51 48 41 36 34 37 34 33 29 23 20 21 21 24 28 30 33 30 30 32 34 33 26 24 29 35 37 41 45 49 47 46 47 49 39 34 34 31 25 20 21 19 25 28
56 54 47 38 40 40 42 36 30 24 25 20 18 21 27 34 35 36 30 33 32 24 21 29 32 36 39 43 46 46 45 47 45 41 35 32 34 29 28 26 27 24 26 30
62 56 50 45 45 43 40 38 38 27 21 23 21 24 22 23 32 36 36 30 25 21 27 32 35 37 41 44 46 45 46 47 47 36 33 31 30 28 33 31 30 30 29 28
66 58 52 46 47 43 40 41 34 22 22 25 28 28 29 31 33 30 29 27 28 29 31 33 38 41 43 47 47 45 48 48 43 34 30 30 28 33 35 37 36 34 33 31
71 62 51 51 51 46 45 37 34 26 21 24 30 36 35 29 33 32 31 27 26 26 31 37 40 42 46 48 47 48 49 45 39 32 30 30 28 35 38 41 42 39 39 37
68 63 54 53 49 50 44 41 37 33 29 25 31 38 38 33 32 35 29 28 25 27 35 40 43 45 47 49 49 50 49 43 33 31 31 30 32 34 41 44 44 45 42 40
66 63 59 50 51 50 43 43 30 31 29 30 34 43 41 35 34 33 32 29 25 31 38 41 45 49 50 51 51 52 50 39 32 30 31 32 33 38 41 45 47 50 48 45
69 66 60 54 56 50 49 43 39 34 28 29 33 35 37 39 37 34 32 27 29 37 40 42 46 50 51 51 53 53 48 39 32 32 30 33 33 37 42 47 50 52 53 55
75 68 64 60 58 53 48 45 39 27 22 32 37 37 36 35 34 33 32 29 33 39 41 43 47 50 50 53 56 52 44 38 35 33 32 33 35 38 41 49 52 55 55 56
72 68 67 65 63 58 52 44 40 32 22 34 33 34 35 33 33 32 33 33 38 40 40 44 49 50 52 56 55 49 41 37 37 34 33 32 34 37 40 45 52 58 59 60
73 70 69 66 63 53 54 44 40 37 26 32 36 34 36 33 33 33 33 33 35 35 40 45 48 52 56 59 53 44 40 40 38 35 32 31 31 35 39 43 49 54 59 61
71 70 70 67 61 52 51 44 42 37 34 31 30 36 35 33 30 31 32 33 35 38 43 46 49 54 57 56 49 43 42 39 36 33 29 29 30 33 37 40 43 50 53 56
62 60 63 65 61 56 53 44 42 41 37 31 30 35 35 33 32 32 33 34 37 40 42 46 50 56 57 52 45 44 42 37 32 29 27 26 28 29 32 36 39 42 45 50
56 59 57 59 62 63 53 43 40 35 30 30 31 31 33 32 32 34 34 36 38 39 42 46 52 56 54 49 45 42 39 35 31 27 26 26 25 27 29 31 34 37 39 42
52 50 51 51 54 53 45 35 32 34 34 36 35 31 32 34 35 35 37 37 37 41 43 47 52 54 51 46 43 40 35 31 29 25 24 24 25 26 27 29 31 32 35 36
52 52 54 55 53 47 41 39 35 36 36 37 36 35 37 38 38 38 37 35 39 43 46 51 52 53 49 45 40 36 32 28 24 23 22 25 25 26 26 27 30 31 33 34
52 53 54 55 49 45 44 42 40 40 39 37 39 42 42 39 38 35 36 39 42 44 48 49 51 50 47 41 37 33 29 25 21 21 22 23 23 23 24 25 25 27 28 29
52 49 45 45 46 45 46 44 45 42 41 41 40 40 39 38 37 37 38 41 43 45 45 45 48 48 46 38 33 30 26 22 21 20 20 19 21 21 21 22 22 23 24 25
44 44 42 41 43 40 43 46 47 47 44 42 40 38 38 36 36 37 40 40 44 44 41 42 45 45 42 37 30 27 23 20 19 18 17 17 17 16 16 16 17 18 19 19
43 43 41 41 43 44 44 45 47 46 44 39 40 40 37 36 37 39 40 44 42 37 38 40 42 43 41 36 28 24 20 18 16 15 14 14 14 13 12 13 13 14 15 15
45 45 46 43 45 46 43 44 46 46 40 38 38 37 38 37 37 40 44 42 36 36 39 38 39 41 40 35 27 22 18 16 15 14 13 12 11 12 13 13 14 13 12 13
45 47 48 47 49 49 45 44 45 46 45 43 39 38 37 38 39 41 37 35 38 39 38 36 36 40 39 34 27 21 16 16 14 13 13 12 12 13 13 13 13 13 14 15
Wind_Direction
243 247 247 248 244 241 240 238 235 232 232 235 233 233 233 233 235 238 241 246 248 250 255 263 269 272 275 275 279 282 285 288 295 298 297 303 304 302 296 290 282 284 294 285
226 238 243 233 234 233 227 224 218 215 211 205 210 226 229 229 232 235 237 239 244 251 257 260 264 267 269 270 274 280 284 294 300 297 300 305 302 301 295 282 273 287 293 282
201 208 216 202 201 196 207 203 182 179 170 178 193 209 223 229 232 236 239 242 246 251 253 251 252 254 263 268 277 285 289 298 299 297 301 302 298 295 290 273 274 300 273 252
210 197 206 198 193 196 189 179 163 153 174 189 200 213 218 227 230 232 234 235 237 229 223 229 240 260 269 274 279 288 295 301 300 299 300 298 293 289 287 276 277 275 248 251
215 207 198 192 193 190 194 185 169 186 197 206 207 211 217 223 222 223 221 223 223 221 225 231 254 262 268 274 284 291 298 301 300 298 298 291 286 284 277 260 264 262 248 241
211 210 213 202 189 191 184 186 192 203 190 189 196 208 212 211 211 212 207 212 210 223 221 242 252 262 269 280 285 293 300 302 300 298 293 285 280 277 269 253 255 253 240 236
216 207 208 204 192 200 197 201 213 208 190 187 196 198 205 208 204 203 212 204 205 215 235 249 258 266 274 279 288 297 304 302 302 298 288 281 274 270 260 248 247 245 239 240
218 211 220 215 208 203 193 204 215 215 206 191 182 191 192 198 202 199 194 200 207 224 241 252 261 270 276 282 290 298 306 304 307 294 285 278 274 267 253 252 244 237 238 235
212 211 210 213 205 203 201 205 210 219 198 182 180 186 188 184 183 194 207 205 211 225 244 255 265 274 281 286 294 301 305 306 306 290 281 275 268 258 250 245 244 244 244 244
208 213 208 211 206 206 203 203 210 203 206 196 201 189 191 194 200 212 205 212 223 236 248 258 267 278 284 289 297 304 304 307 301 289 279 272 263 252 253 247 242 244 245 243
207 208 213 205 206 208 204 211 219 216 221 227 218 204 201 204 206 211 217 221 232 244 253 261 269 278 286 293 299 304 303 307 294 286 276 268 261 253 247 248 247 243 244 249
207 207 204 203 194 199 202 212 217 220 224 223 203 200 205 209 211 220 222 229 237 249 257 264 272 278 287 293 299 300 306 302 291 282 271 263 255 249 248 245 248 248 248 248
204 202 199 198 193 203 209 217 219 227 224 216 206 207 208 209 213 216 223 229 244 254 261 269 274 281 289 295 299 302 306 298 292 280 270 263 253 246 246 246 246 248 249 251
205 205 202 197 203 211 216 217 225 225 213 210 201 203 203 207 212 219 225 232 247 256 264 271 279 287 293 298 300 304 304 298 292 282 270 260 251 244 241 244 246 247 250 251
204 204 200 204 210 217 220 225 227 224 215 206 210 211 211 215 219 225 235 239 248 261 269 277 282 290 294 297 300 306 301 298 293 284 272 260 249 244 241 239 241 245 248 252
202 205 208 208 214 217 220 226 228 226 210 216 218 219 218 222 230 238 239 250 262 272 275 279 287 292 296 297 304 305 306 301 293 286 273 260 247 242 239 239 238 241 245 249
202 207 211 212 215 214 218 222 224 224 225 227 226 220 228 228 242 244 248 259 268 273 278 284 289 294 296 300 306 308 306 300 295 286 274 261 251 242 239 239 240 241 243 246
199 201 206 207 208 215 216 221 224 231 228 230 223 226 229 235 244 247 256 265 271 276 283 289 292 296 298 303 307 311 304 301 294 284 272 259 251 248 242 239 240 241 244 246
198 202 205 205 210 212 217 217 219 216 218 219 225 225 227 233 243 250 257 265 270 280 286 291 295 297 299 304 310 307 305 303 292 282 271 264 256 251 249 247 245 244 244 247
197 200 198 201 203 206 207 213 212 215 220 226 224 227 232 237 242 248 260 267 274 282 288 292 295 296 301 306 310 307 305 301 288 280 273 267 263 259 253 250 249 248 249 251
195 198 198 201 206 204 214 212 213 213 218 221 224 231 238 240 244 251 260 267 276 283 288 292 294 296 302 308 309 310 307 295 280 276 269 264 262 257 254 250 248 250 252 254
193 196 200 205 209 207 208 214 210 212 219 222 229 234 240 242 247 254 261 269 278 285 290 293 293 297 302 309 311 313 304 289 279 273 266 262 259 256 254 252 249 247 248 251
197 195 197 200 202 205 207 210 211 217 217 221 227 228 232 237 246 254 263 272 281 287 290 291 294 298 305 309 316 313 296 287 281 273 268 262 257 254 251 248 247 247 247 250
195 197 197 197 197 195 199 204 209 216 219 220 225 228 230 238 249 258 268 276 282 285 286 291 296 301 307 313 317 307 292 287 280 271 266 261 256 252 246 242 240 239 240 242
198 197 199 196 196 199 203 207 212 211 215 221 224 228 234 245 254 262 267 277 279 282 287 294 298 304 307 317 316 302 290 283 272 262 256 253 245 237 231 229 227 226 226 227
200 201 200 200 200 201 206 208 209 214 220 227 228 233 241 252 257 264 274 274 278 286 292 294 300 303 309 316 313 297 285 276 264 255 245 237 232 226 220 214 214 217 226 239
201 204 205 204 201 203 209 210 213 219 224 228 232 240 246 252 260 270 269 275 283 286 291 293 300 303 309 313 308 287 278 269 250 241 236 226 223 224 224 224 232 237 247 258
Height
10232 10237 10241 10246 10253 10255 10259 10266 10274 10279 10286 10295 10304 10314 10326 10337 10350 10364 10377 10389 10399 10407 10413 10420 10422 10422 10422 10423 10423 10420 10416 10412 10405 10396 10386 10377 10367 10362 10357 10354 10349 10345 10343 10343
10224 10228 10233 10240 10244 10248 10253 10260 10266 10272 10281 10289 10299 10310 10320 10330 10341 10353 10365 10376 10386 10396 10402 10407 10409 10409 10409 10409 10409 10409 10405 10401 10391 10382 10373 10365 10354 10352 10348 10345 10342 10340 10338 10339
10217 10224 10229 10236 10242 10245 10250 10253 10262 10267 10276 10286 10297 10306 10315 10324 10334 10344 10356 10367 10375 10382 10389 10393 10396 10396 10397 10397 10398 10396 10393 10390 10380 10369 10361 10354 10344 10343 10341 10338 10336 10335 10335 10337
10208 10215 10220 10227 10235 10240 10245 10250 10258 10267 10278 10287 10295 10303 10311 10318 10327 10336 10346 10355 10364 10371 10377 10381 10384 10385 10386 10386 10386 10383 10380 10376 10366 10357 10350 10343 10336 10334 10333 10331 10332 10333 10334 10334
10202 10210 10216 10222 10231 10237 10243 10250 10257 10268 10276 10285 10293 10300 10307 10314 10321 10330 10338 10346 10354 10361 10366 10370 10373 10376 10377 10375 10374 10371 10368 10363 10356 10344 10339 10334 10329 10327 10327 10327 10328 10330 10330 10332
10196 10202 10212 10219 10227 10236 10244 10249 10256 10266 10273 10281 10289 10296 10302 10309 10316 10324 10332 10340 10346 10352 10357 10361 10364 10367 10366 10364 10362 10358 10355 10351 10345 10333 10329 10326 10321 10320 10321 10322 10323 10326 10326 10327
10187 10196 10205 10215 10222 10231 10240 10247 10254 10262 10272 10278 10284 10290 10297 10303 10310 10318 10326 10332 10338 10344 10348 10352 10355 10356 10356 10353 10350 10347 10342 10336 10332 10323 10319 10317 10313 10314 10314 10316 10318 10320 10321 10321
10179 10189 10200 10208 10217 10224 10234 10243 10251 10258 10268 10276 10281 10288 10293 10298 10304 10311 10318 10325 10331 10336 10341 10343 10345 10346 10345 10342 10340 10336 10331 10325 10320 10313 10310 10308 10305 10306 10307 10309 10312 10313 10314 10317
10172 10184 10194 10204 10213 10221 10231 10239 10248 10256 10264 10271 10278 10284 10290 10296 10302 10309 10314 10319 10324 10329 10333 10334 10335 10335 10333 10330 10327 10324 10321 10314 10308 10303 10301 10299 10298 10297 10300 10302 10304 10306 10308 10309
10167 10179 10193 10203 10210 10219 10229 10237 10245 10254 10261 10268 10275 10281 10286 10292 10298 10303 10309 10313 10317 10322 10325 10326 10326 10324 10321 10319 10315 10311 10307 10304 10296 10292 10291 10289 10288 10289 10289 10292 10296 10298 10300 10302
10162 10177 10187 10197 10206 10217 10225 10233 10241 10250 10257 10263 10268 10275 10281 10287 10292 10298 10302 10306 10310 10314 10317 10317 10316 10314 10311 10307 10303 10299 10295 10291 10287 10283 10281 10280 10278 10279 10281 10282 10285 10289 10293 10295
10156 10169 10180 10192 10203 10213 10222 10228 10238 10246 10253 10257 10262 10268 10275 10280 10285 10292 10296 10300 10303 10307 10308 10308 10306 10303 10300 10296 10291 10286 10282 10279 10276 10274 10270 10268 10267 10267 10269 10273 10275 10278 10282 10285
10148 10162 10175 10187 10197 10207 10214 10224 10234 10241 10248 10253 10258 10263 10268 10273 10278 10284 10289 10292 10297 10298 10298 10298 10296 10293 10289 10284 10279 10274 10269 10264 10264 10261 10259 10256 10256 10256 10257 10260 10264 10267 10270 10273
10141 10156 10170 10182 10192 10200 10210 10220 10228 10236 10242 10247 10252 10257 10262 10268 10273 10278 10282 10285 10288 10289 10289 10288 10285 10282 10278 10271 10266 10262 10257 10252 10249 10249 10247 10245 10243 10244 10246 10248 10253 10257 10259 10261
10135 10150 10165 10176 10184 10195 10206 10215 10224 10232 10238 10244 10249 10253 10258 10263 10268 10272 10275 10278 10280 10280 10280 10278 10274 10270 10265 10259 10254 10250 10244 10240 10235 10234 10232 10232 10231 10232 10234 10237 10240 10243 10247 10250
10130 10144 10156 10167 10179 10191 10202 10210 10218 10226 10232 10238 10244 10248 10253 10257 10262 10265 10268 10270 10272 10272 10270 10267 10264 10259 10253 10246 10242 10237 10232 10227 10222 10219 10218 10218 10219 10220 10222 10224 10228 10231 10234 10237
10125 10138 10150 10162 10174 10187 10196 10204 10210 10218 10225 10232 10238 10243 10247 10252 10255 10258 10261 10263 10264 10263 10260 10257 10253 10247 10241 10235 10230 10225 10220 10215 10210 10205 10205 10206 10208 10209 10211 10213 10216 10219 10222 10225
10119 10132 10143 10156 10170 10179 10188 10197 10206 10213 10220 10226 10231 10236 10241 10245 10249 10252 10254 10255 10255 10254 10251 10247 10242 10235 10229 10224 10219 10214 10208 10203 10198 10196 10194 10196 10196 10198 10200 10203 10205 10208 10211 10214
10114 10125 10137 10152 10161 10172 10182 10192 10200 10207 10214 10220 10225 10230 10234 10238 10242 10245 10246 10247 10246 10245 10242 10237 10231 10224 10217 10214 10210 10205 10198 10192 10188 10186 10186 10186 10187 10188 10190 10193 10195 10198 10200 10201
10110 10122 10135 10145 10155 10167 10177 10186 10194 10202 10208 10213 10219 10224 10227 10231 10235 10237 10238 10238 10238 10235 10232 10227 10221 10214 10208 10204 10200 10193 10187 10183 10179 10178 10178 10177 10177 10178 10180 10182 10184 10186 10188 10190
10108 10119 10129 10137 10148 10161 10171 10180 10189 10196 10202 10207 10212 10217 10220 10224 10227 10229 10230 10230 10229 10226 10222 10216 10210 10204 10199 10195 10190 10183 10177 10174 10172 10171 10170 10169 10169 10169 10170 10171 10173 10175 10177 10178
10102 10111 10121 10134 10147 10157 10165 10175 10183 10189 10195 10200 10205 10209 10212 10215 10218 10220 10221 10221 10220 10217 10212 10207 10200 10194 10189 10186 10180 10173 10169 10166 10165 10164 10163 10162 10162 10162 10163 10164 10165 10166 10168 10170
10097 10112 10123 10133 10144 10154 10163 10170 10175 10180 10185 10191 10195 10199 10204 10207 10210 10212 10213 10212 10210 10206 10203 10197 10191 10185 10180 10177 10170 10164 10161 10159 10158 10156 10156 10157 10157 10157 10157 10158 10159 10160 10162 10164
10100 10110 10121 10131 10142 10150 10154 10158 10165 10171 10178 10184 10189 10193 10196 10199 10202 10204 10204 10202 10200 10197 10194 10189 10182 10176 10172 10167 10162 10157 10155 10153 10151 10151 10151 10151 10151 10151 10152 10152 10154 10155 10157 10158
10094 10104 10116 10126 10132 10139 10145 10152 10159 10166 10172 10176 10181 10184 10188 10191 10193 10195 10194 10192 10189 10188 10185 10180 10174 10169 10163 10159 10155 10151 10149 10147 10147 10146 10146 10146 10146 10146 10146 10147 10148 10149 10151 10152
10091 10100 10108 10117 10124 10131 10138 10146 10153 10159 10164 10169 10173 10176 10179 10183 10186 10186 10184 10181 10180 10177 10175 10172 10167 10161 10156 10151 10148 10146 10144 10143 10142 10141 10141 10141 10141 10142 10142 10143 10144 10145 10146 10147
10086 10094 10102 10109 10117 10124 10132 10139 10145 10151 10156 10160 10164 10169 10172 10175 10177 10177 10174 10171 10169 10167 10165 10164 10160 10154 10149 10145 10142 10141 10139 10138 10138 10137 10137 10138 10138 10139 10139 10140 10140 10140 10140 10140